When you browse on this site, cookies collect data to enhance your experience and personalize the content and advertising you see.
Visit our Privacy Policy to learn more. By continuing to use the site, you agree to this use of cookies and data.
  • In Hungary
  • List of Countries
  • For 7 days
  • Water Temperature
  • Satellite Maps
  • Weather Map
  • News
  • Weather Widgets
  • user-avatar
    Login

    Hourly Weather Skoroszow

    Today, 25 May, Saturday

    Time Temperature Precipitation Wind Pressure Humidity
    00:00 +12°C° 0 mm 2 mps 749 mmHg 67%
    01:00 +12°C° 0 mm 2 mps 748 mmHg 69%
    02:00 +12°C° 0 mm 2 mps 748 mmHg 72%
    03:00 +12°C° 0 mm 2 mps 748 mmHg 75%
    04:00 +10°C° 0 mm 2 mps 748 mmHg 78%
    05:00 +13°C° 0 mm 2 mps 748 mmHg 78%
    06:00 +14°C° 0 mm 3 mps 749 mmHg 78%
    07:00 +15°C° 0 mm 4 mps 749 mmHg 76%
    08:00 +18°C° 0.3 mm 4 mps 749 mmHg 73%
    09:00 +19°C° 0.3 mm 4 mps 749 mmHg 70%
    10:00 +20°C° 0.3 mm 4 mps 749 mmHg 67%
    11:00 +21°C° 0.4 mm 4 mps 749 mmHg 64%
    12:00 +21°C° 0.4 mm 4 mps 749 mmHg 62%
    13:00 +21°C° 0.4 mm 3 mps 749 mmHg 59%
    14:00 +21°C° 0.3 mm 3 mps 749 mmHg 59%
    15:00 +21°C° 0.3 mm 3 mps 749 mmHg 59%
    16:00 +21°C° 0.3 mm 3 mps 749 mmHg 59%
    17:00 +20°C° 0.1 mm 2 mps 749 mmHg 65%
    18:00 +19°C° 0.1 mm 2 mps 749 mmHg 71%
    19:00 +17°C° 0.1 mm 2 mps 749 mmHg 77%
    20:00 +16°C° 0 mm 2 mps 749 mmHg 81%
    21:00 +14°C° 0 mm 2 mps 750 mmHg 86%
    22:00 +13°C° 0 mm 2 mps 750 mmHg 90%
    23:00 +12°C° 0 mm 2 mps 750 mmHg 90%

    Tomorrow, 26 May, Sunday

    Time Temperature Precipitation Wind Pressure Humidity
    00:00 +10°C° 0 mm 2 mps 750 mmHg 91%
    01:00 +9°C° 0 mm 2 mps 750 mmHg 92%
    02:00 +9°C° 0 mm 2 mps 750 mmHg 92%
    03:00 +9°C° 0 mm 1 mps 750 mmHg 93%
    04:00 +9°C° 0 mm 1 mps 750 mmHg 93%
    05:00 +9°C° 0 mm 2 mps 750 mmHg 89%
    06:00 +12°C° 0 mm 2 mps 750 mmHg 84%
    07:00 +13°C° 0 mm 2 mps 750 mmHg 79%
    08:00 +14°C° 0 mm 3 mps 750 mmHg 74%
    09:00 +16°C° 0 mm 3 mps 750 mmHg 68%
    10:00 +18°C° 0 mm 4 mps 750 mmHg 63%
    11:00 +19°C° 0 mm 4 mps 749 mmHg 60%
    12:00 +20°C° 0 mm 4 mps 749 mmHg 57%
    13:00 +21°C° 0 mm 5 mps 748 mmHg 54%
    14:00 +22°C° 0 mm 5 mps 748 mmHg 54%
    15:00 +22°C° 0 mm 5 mps 748 mmHg 53%
    16:00 +22°C° 0 mm 5 mps 748 mmHg 53%
    17:00 +21°C° 0 mm 4 mps 747 mmHg 59%
    18:00 +20°C° 0 mm 3 mps 747 mmHg 66%
    19:00 +19°C° 0 mm 2 mps 747 mmHg 72%
    20:00 +18°C° 0 mm 2 mps 747 mmHg 74%
    21:00 +17°C° 0 mm 2 mps 748 mmHg 76%
    22:00 +16°C° 0 mm 2 mps 748 mmHg 78%
    23:00 +15°C° 0 mm 2 mps 748 mmHg 79%

    Day after tomorrow, 27 May, Monday

    Time Temperature Precipitation Wind Pressure Humidity
    00:00 +15°C° 0 mm 2 mps 748 mmHg 81%
    01:00 +15°C° 0 mm 2 mps 747 mmHg 82%
    02:00 +14°C° 0 mm 2 mps 747 mmHg 84%
    03:00 +14°C° 0 mm 2 mps 747 mmHg 86%
    04:00 +13°C° 0 mm 3 mps 747 mmHg 88%
    05:00 +14°C° 0 mm 3 mps 747 mmHg 83%
    06:00 +17°C° 0 mm 4 mps 747 mmHg 79%
    07:00 +19°C° 0 mm 4 mps 746 mmHg 74%
    08:00 +20°C° 0 mm 4 mps 746 mmHg 68%
    09:00 +22°C° 0 mm 5 mps 746 mmHg 62%
    10:00 +23°C° 0 mm 5 mps 746 mmHg 56%
    11:00 +25°C° 0.1 mm 5 mps 746 mmHg 55%
    12:00 +25°C° 0.1 mm 5 mps 746 mmHg 53%
    13:00 +26°C° 0.1 mm 5 mps 746 mmHg 52%
    14:00 +25°C° 0.4 mm 4 mps 746 mmHg 56%
    15:00 +25°C° 0.4 mm 4 mps 746 mmHg 61%
    16:00 +23°C° 0.4 mm 4 mps 745 mmHg 66%
    17:00 +22°C° 0.8 mm 3 mps 746 mmHg 73%
    18:00 +21°C° 0.8 mm 2 mps 746 mmHg 80%
    19:00 +20°C° 0.8 mm 1 mps 746 mmHg 87%
    20:00 +19°C° 0 mm 1 mps 746 mmHg 88%
    21:00 +18°C° 0 mm 1 mps 746 mmHg 90%
    22:00 +16°C° 0 mm 1 mps 746 mmHg 92%
    23:00 +16°C° 0 mm 1 mps 746 mmHg 93%

    28 May, Tuesday

    Time Temperature Precipitation Wind Pressure Humidity
    00:00 +16°C° 0 mm 1 mps 746 mmHg 93%
    01:00 +16°C° 0 mm 1 mps 745 mmHg 94%
    02:00 +16°C° 0.7 mm 1 mps 745 mmHg 95%
    03:00 +16°C° 0.7 mm 1 mps 744 mmHg 96%
    04:00 +15°C° 0.7 mm 2 mps 744 mmHg 97%
    05:00 +16°C° 2.6 mm 2 mps 744 mmHg 97%
    06:00 +16°C° 2.6 mm 2 mps 744 mmHg 97%
    07:00 +16°C° 2.6 mm 2 mps 743 mmHg 97%
    08:00 +17°C° 0.6 mm 2 mps 743 mmHg 95%
    09:00 +17°C° 0.6 mm 2 mps 743 mmHg 92%
    10:00 +18°C° 0.6 mm 2 mps 742 mmHg 90%
    11:00 +19°C° 0.9 mm 2 mps 742 mmHg 86%
    12:00 +20°C° 0.9 mm 2 mps 742 mmHg 83%
    13:00 +21°C° 0.9 mm 2 mps 741 mmHg 80%
    14:00 +20°C° 1.4 mm 3 mps 741 mmHg 83%
    15:00 +19°C° 1.4 mm 4 mps 741 mmHg 87%
    16:00 +18°C° 1.4 mm 4 mps 741 mmHg 90%
    17:00 +15°C° 0.5 mm 5 mps 742 mmHg 91%
    18:00 +13°C° 0.5 mm 6 mps 742 mmHg 93%
    19:00 +11°C° 0.5 mm 6 mps 742 mmHg 94%
    20:00 +10°C° 0.4 mm 6 mps 743 mmHg 94%
    21:00 +10°C° 0.4 mm 6 mps 743 mmHg 94%
    22:00 +10°C° 0.4 mm 6 mps 743 mmHg 94%
    23:00 +10°C° 0.1 mm 5 mps 744 mmHg 94%

    29 May, Wednesday

    Time Temperature Precipitation Wind Pressure Humidity
    00:00 +10°C° 0.1 mm 5 mps 744 mmHg 94%
    01:00 +10°C° 0.1 mm 5 mps 744 mmHg 94%
    02:00 +10°C° 0.1 mm 5 mps 745 mmHg 94%
    03:00 +10°C° 0.1 mm 5 mps 745 mmHg 95%
    04:00 +10°C° 0.1 mm 5 mps 745 mmHg 95%
    05:00 +11°C° 0.1 mm 4 mps 746 mmHg 94%
    06:00 +11°C° 0.1 mm 4 mps 746 mmHg 92%
    07:00 +11°C° 0.1 mm 4 mps 747 mmHg 90%
    08:00 +12°C° 0 mm 5 mps 747 mmHg 85%
    09:00 +13°C° 0 mm 5 mps 748 mmHg 79%
    10:00 +14°C° 0 mm 5 mps 748 mmHg 73%
    11:00 +15°C° 0 mm 5 mps 749 mmHg 69%
    12:00 +16°C° 0 mm 5 mps 749 mmHg 66%
    13:00 +17°C° 0 mm 5 mps 749 mmHg 62%
    14:00 +17°C° 0.1 mm 5 mps 750 mmHg 63%
    15:00 +17°C° 0.1 mm 5 mps 750 mmHg 63%
    16:00 +16°C° 0.1 mm 5 mps 750 mmHg 63%
    17:00 +17°C° 0.1 mm 4 mps 751 mmHg 68%
    18:00 +15°C° 0.1 mm 4 mps 751 mmHg 74%
    19:00 +14°C° 0.1 mm 3 mps 752 mmHg 80%
    20:00 +13°C° 0 mm 3 mps 752 mmHg 80%
    21:00 +12°C° 0 mm 3 mps 753 mmHg 81%
    22:00 +11°C° 0 mm 3 mps 754 mmHg 82%
    23:00 +10°C° 0 mm 3 mps 754 mmHg 81%

    30 May, Thursday

    Time Temperature Precipitation Wind Pressure Humidity
    00:00 +9°C° 0 mm 3 mps 755 mmHg 79%
    01:00 +8°C° 0 mm 3 mps 755 mmHg 77%
    02:00 +8°C° 0 mm 3 mps 755 mmHg 77%
    03:00 +7°C° 0 mm 2 mps 756 mmHg 77%
    04:00 +7°C° 0 mm 2 mps 756 mmHg 77%
    05:00 +8°C° 0 mm 2 mps 757 mmHg 74%
    06:00 +9°C° 0 mm 2 mps 757 mmHg 71%
    07:00 +10°C° 0 mm 2 mps 757 mmHg 67%
    08:00 +12°C° 0 mm 2 mps 757 mmHg 62%
    09:00 +13°C° 0 mm 2 mps 757 mmHg 56%
    10:00 +15°C° 0 mm 2 mps 757 mmHg 50%
    11:00 +16°C° 0 mm 2 mps 757 mmHg 48%
    12:00 +17°C° 0 mm 2 mps 757 mmHg 46%
    13:00 +19°C° 0 mm 1 mps 756 mmHg 43%
    14:00 +19°C° 0 mm 1 mps 756 mmHg 43%
    15:00 +17°C° 0 mm 0 mps 756 mmHg 43%
    16:00 +17°C° 0 mm 0 mps 755 mmHg 43%
    17:00 +16°C° 0 mm 0 mps 755 mmHg 49%
    18:00 +16°C° 0 mm 1 mps 755 mmHg 55%
    19:00 +15°C° 0 mm 1 mps 754 mmHg 61%
    20:00 +13°C° 0 mm 2 mps 754 mmHg 63%
    21:00 +12°C° 0 mm 2 mps 754 mmHg 65%
    22:00 +10°C° 0 mm 3 mps 754 mmHg 67%
    23:00 +10°C° 0 mm 3 mps 754 mmHg 69%
    Show more